Location: Eisingen in Unterfranken
(49.7591°N, 9.8347°E)
Time: 13:29:21
(UTC+01:00)

N. Korean satellite - Pass Details

Date: 02 December 2022
Orbit: 407 x 441 km, 97.3° (Epoch: 05 February)

Event Time Altitude Azimuth Distance (km) Brightness Sun altitude
Rises 05:39:30 0° 14° (NNE) 2,532 10.3 -21.4°
Reaches altitude 10° 05:41:35 10° 17° (NNE) 1,647 9.3 -21.1°
Maximum altitude 05:45:07 70° 102° (ESE) 504 6.7 -20.5°
Drops below altitude 10° 05:48:35 10° 187° (S) 1,614 9.2 -19.9°
Sets 05:50:36 0° 189° (S) 2,476 10.2 -19.6°
